Regional Weather Roundup
Issued by NWS

Home | Current Version | Previous Version | Graphics & Text | Print | Product List | Glossary On
Versions: 1 2 3 4 5 6 7 8 9 10 11 12 13 14 15 16 17 18 19 20 21 22 23 24 25 26 27 28
000
ASUS45 KPSR 232210
RWRAZ

ARIZONA HOURLY REGIONAL WEATHER ROUNDUP
NATIONAL WEATHER SERVICE PHOENIX AZ
300 PM MST TUE AUG 23 2016

NOTE: FAIR INDICATES FEW OR NO CLOUDS BELOW 12,000 FEET WITH NO
SIGNIFICANT WEATHER AND/OR OBSTRUCTIONS TO VISIBILITY.

AZZ001>003-036-232300-
NORTHWEST ARIZONA

CITY           SKY/WX    TMP DP  RH WIND       PRES   REMARKS
BULLHEAD CITY  SUNNY     97  54  23 S7        29.92F
KINGMAN        SUNNY     83  54  36 SW8       30.11F
$$

AZZ004>008-015-016-018-232300-
NORTH CENTRAL ARIZONA

CITY           SKY/WX    TMP DP  RH WIND       PRES   REMARKS
GRAND CANYON   LGT RAIN  66  52  60 S3G17     30.28F
PRESCOTT       MOSUNNY   68  59  73 E3        30.22F
FLAGSTAFF      PTSUNNY   61  47  59 W13       30.30F
PAYSON         CLOUDY    70  55  60 W7        30.26F
PAGE           MOSUNNY   80  46  30 NW8       30.10F
$$

AZZ009>014-017-232300-
NORTHEAST ARIZONA

CITY           SKY/WX    TMP DP  RH WIND       PRES   REMARKS
WINSLOW        PTSUNNY   74  52  46 S17G26    30.20F
SAINT JOHNS    CLOUDY    64  51  62 NW18G24   30.25R
WINDOW ROCK    PTSUNNY   67  47  48 SW15      30.28F
SHOW LOW       PTSUNNY   66  41  39 SW15      30.31S
$$

AZZ023-232300-
GREATER PHOENIX AREA

CITY           SKY/WX    TMP DP  RH WIND       PRES   REMARKS
PHOENIX        PTSUNNY   94  58  29 VRB5      29.93F
BUCKEYE        SUNNY     95  55  26 N7        29.96F
GLENDALE       MOSUNNY   93  57  29 NW7       29.97F
LUKE AFB       MOSUNNY   93  56  29 N6        29.94F
DEER VALLEY    MOSUNNY   90  57  32 NW5       29.98F
SCOTTSDALE     MOSUNNY   91  56  30 NW8       29.99F
MESA-FALCON    PTSUNNY  N/A N/A N/A N12       29.94F
MESA-GATEWAY   MOSUNNY   93  55  27 VRB6      29.97F
CHANDLER       MOSUNNY   97  54  23 NW7       29.95F
$$

AZZ027-028-232300-
SOUTHWEST MARICOPA COUNTY AND PINAL COUNTY

CITY           SKY/WX    TMP DP  RH WIND       PRES   REMARKS
CASA GRANDE    SUNNY     99  48  18 W12G20    29.98F
GILA BEND      MOSUNNY  101  43  13 N5        29.90F
$$

AZZ503-504-507>509-232300-
SOUTHEAST ARIZONA

CITY           SKY/WX    TMP DP  RH WIND       PRES   REMARKS
TUCSON         MOSUNNY   93  49  22 SW9       30.05F
DAVIS-MONTHAN  PTSUNNY   92  50  23 SW9       30.03F
RYAN FIELD     MOSUNNY   91  48  22 CALM      30.03F
NOGALES        MOSUNNY   88  51  28 W10G17    30.13F
SIERRA VISTA   MOSUNNY   85  46  25 W12G17    30.19F
DOUGLAS        SUNNY     88  43  20 W8G21     30.11F
SAFFORD        MOSUNNY   94  40  15 NW12G23   30.02F
$$

AZZ020-021-025-026-031-232300-
SOUTHWEST ARIZONA

CITY           SKY/WX    TMP DP  RH WIND       PRES   REMARKS
YUMA           MOSUNNY  101  54  20 VRB6      29.87F
$$

CAZ031-033-041-043-047-048-061-232300-
SOUTHERN CALIFORNIA

CITY           SKY/WX    TMP DP  RH WIND       PRES   REMARKS
DOWNTOWN L.A.  SUNNY     79  63  57 VRB3      30.00F
L.A. AIRPORT   MOSUNNY   75  62  64 W14G22    30.01F
SAN DIEGO      MOSUNNY   76  61  59 NW9       30.03F
BURBANK        SUNNY     86  52  30 S10       30.00F
ONTARIO        MOSUNNY   92  46  20 W14       30.00F
RIVERSIDE      SUNNY     92  51  24 W12G18    29.99F
PALM SPRINGS   MOSUNNY  103  44  13 CALM      29.89F
EL CENTRO NAS  MOSUNNY  103  49  16 SE8       29.86F
IMPERIAL       SUNNY    104  55  19 E5        29.84F HX 102
BLYTHE         SUNNY     99  55  23 VRB5      29.89F
NEEDLES        MOSUNNY   97  58  27 SE6       29.93F
$$

NVZ020-UTZ003-232300-
SOUTHERN NEVADA-UTAH

CITY           SKY/WX    TMP DP  RH WIND       PRES   REMARKS
LAS VEGAS      MOSUNNY   89  56  32 E6        29.96F
SALT LAKE CITY MOSUNNY   89  29  11 N9G21     30.04F
$$

NMZ009-TXZ055-232300-
NEW MEXICO-WEST TEXAS

CITY           SKY/WX    TMP DP  RH WIND       PRES   REMARKS
ALBUQUERQUE    CLOUDY    79  47  32 SW6       30.16F
EL PASO        PTSUNNY   88  59  37 NE6       30.05F
$$


........................KEY........................
SKY/WX - SKY CONDITION/WEATHER
TMP    - TEMPERATURE IN FAHRENHEIT
DP     - DEW POINT IN FAHRENHEIT
RH     - RELATIVE HUMIDITY IN PERCENT
WIND   - DIRECTION AND SPEED IN MILES PER HOUR (MPH)
VRB    - VARIABLE WIND DIRECTION
PRES   - MEAN SEA LEVEL PRESSURE IN INCHES OF MERCURY
         F - FALLING PRESSURE   R - RISING PRESSURE
         S - STEADY PRESSURE
VSB    - VISIBILITY IN MILES
HX     - HEAT INDEX IN FAHRENHEIT
WCI    - WIND CHILL INDEX IN FAHRENHEIT
TC     - TEMPERATURE IN CELSIUS WHICH IS ALSO KNOWN AS
         TEMPERATURE IN CENTIGRADE
AFB    - AIR FORCE BASE
         LUKE AFB IS LUKE AIR FORCE BASE
         DAVIS-MONTHAN IS DAVIS-MONTHAN AIR FORCE BASE
NAS    - NAVAL AIR STATION
         EL CENTRO NAS IS EL CENTRO NAVAL AIR STATION
N/A    - NOT AVAILABLE





USA.gov is the U.S. government's official web portal to all federal, state and local government web resources and services.